[[{"header":{"parameterUnit":"m.s-1","parameterCategory":1,"la1":30.2991,"la2":30.254,"lo1":-89.0895,"lo2":-89.0444,"dy":0.0017,"dx":0.0017,"nx":28,"ny":28,"refTime":"2025-01-06T03:00:00:Z","depth":0,"parameterNumber":2,"parameterNumberName":"U-component_of_WINDS"},"data":[0,0,0,0,0,0,0,0,0,0,0,0,0,0,0,0,0,0,0,0,0,0,0,0,0,0,0,0,0,0,0,0,0,0,0,0,0,0,0,0,0,0,0,0,0,0,0,0,0,0,0,0,0,0,0,0,0,0,-0.2817,-0.2817,0,-0.286,-0.2861,-0.2861,-0.286,-0.2859,-0.2859,-0.2858,-0.2904,-0.2906,-0.2908,0,0,0,0,0,0,0,0,0,0,0,0,0,-0.2733,-0.2735,-0.2817,-0.2817,-0.2818,-0.286,-0.2861,-0.2862,-0.286,-0.2859,-0.2859,-0.2858,-0.2904,-0.2906,-0.2908,0,0,0,0,0,0,0,0,0,0,0,0,0,-0.2772,-0.2735,-0.2817,-0.2822,-0.2823,-0.286,-0.2861,-0.2862,-0.286,-0.2859,-0.2858,-0.2858,-0.2903,-0.2906,-0.2908,-0.2943,0,0,-0.2917,-0.2918,0,0,0,0,0,0,0,0,-0.277,-0.2775,-0.2821,-0.2822,-0.2823,-0.2854,-0.2848,-0.2889,-0.286,-0.2846,-0.2858,-0.2857,-0.2888,-0.2892,-0.2902,-0.2945,-0.2947,-0.2917,-0.2918,-0.292,-0.292,0,0,0,0,0,0,0,-0.2767,-0.2774,-0.2834,-0.2822,-0.2823,-0.2823,-0.2827,-0.2856,-0.2872,-0.2847,-0.2847,-0.2853,-0.2889,-0.29,-0.2904,-0.2948,-0.2917,-0.2919,-0.2921,-0.2922,-0.3021,-0.3022,0,0,0,0,0,0,-0.2763,-0.2771,-0.2833,-0.2835,-0.2794,-0.2825,-0.283,-0.2845,-0.2872,-0.2875,-0.2853,-0.2852,-0.2896,-0.29,-0.2905,-0.2948,-0.292,-0.2922,-0.2924,-0.302,-0.3021,-0.3023,0,0,0,0,0,0,-0.2762,-0.2769,-0.2831,-0.2803,-0.2811,-0.2827,-0.2844,-0.2846,-0.2857,-0.2876,-0.2879,-0.2862,-0.2895,-0.2901,-0.2934,-0.2949,-0.2923,-0.2926,-0.3019,-0.3021,-0.3022,-0.3033,0,0,0,0,0,0,-0.2759,-0.2768,-0.2782,-0.2804,-0.2813,-0.2859,-0.2845,-0.2848,-0.2862,-0.2861,-0.2885,-0.2888,-0.2895,-0.293,-0.2936,-0.2953,-0.2928,-0.3018,-0.302,-0.3022,-0.3032,-0.3035,-0.3038,0,0,0,0,0,-0.2756,-0.2783,-0.2782,-0.279,-0.283,-0.2859,-0.2865,-0.2872,-0.2863,-0.2877,-0.2888,-0.2887,-0.2946,-0.2933,-0.294,-0.2958,-0.3017,-0.3019,-0.3021,-0.303,-0.3034,-0.3038,0,0,0,0,0,0,-0.2764,-0.2787,-0.2786,-0.2821,-0.2838,-0.2859,-0.2877,-0.2876,-0.2897,-0.2896,-0.2904,-0.2909,-0.2942,-0.2953,-0.2937,-0.2993,-0.298,-0.2984,-0.2984,-0.2989,-0.2992,-0.2989,-0.293,0,0,0,0,0,-0.2769,-0.2791,-0.281,-0.2839,-0.2848,-0.2861,-0.2874,-0.2878,-0.2897,-0.2904,-0.2918,-0.2937,-0.2959,-0.2974,-0.2996,-0.3033,-0.3038,-0.3048,-0.3051,-0.3054,-0.3058,-0.3077,-0.3082,-0.303,-0.303,-0.303,0,0,-0.2781,-0.2796,-0.281,-0.2841,-0.2855,-0.2878,-0.2867,-0.2892,-0.2909,-0.2908,-0.2939,-0.295,-0.2971,-0.3006,-0.3021,-0.3016,-0.3073,-0.3057,-0.3059,-0.3061,-0.308,-0.3085,-0.309,-0.3032,-0.3031,-0.3031,0,0,-0.2815,-0.2829,-0.2854,-0.2868,-0.2889,-0.2897,-0.2903,-0.2924,-0.2931,-0.2963,-0.2962,-0.2983,-0.3022,-0.3037,-0.305,-0.3087,-0.3087,-0.3094,-0.3111,-0.3131,-0.3135,-0.3138,-0.3152,-0.3157,-0.3098,-0.3098,-0.3098,0,-0.2828,-0.2862,-0.2868,-0.2893,-0.2906,-0.2905,-0.2932,-0.2945,-0.2972,-0.2982,-0.2975,-0.3023,-0.3037,-0.3075,-0.3084,-0.3094,-0.3102,-0.3092,-0.3134,-0.3137,-0.3141,-0.3154,-0.316,-0.3098,-0.3098,-0.3098,-0.3098,0,-0.2877,-0.29,-0.2918,-0.2944,-0.2959,-0.2985,-0.2995,-0.301,-0.3012,-0.3021,-0.3052,-0.3069,-0.3094,-0.3103,-0.3106,-0.3141,-0.3137,-0.3132,-0.312,-0.3147,-0.3159,-0.3165,-0.31,-0.3099,-0.3099,-0.3099,0,0,-0.2918,-0.2945,-0.2952,-0.2964,-0.2986,-0.3004,-0.3029,-0.3053,-0.3066,-0.3084,-0.3106,-0.3138,-0.3133,-0.3148,-0.3152,-0.3168,-0.3198,-0.3161,-0.3162,-0.3168,-0.3238,-0.3242,-0.3248,-0.3197,-0.3198,-0.3198,-0.3236,0,-0.2955,-0.2999,-0.3004,-0.3044,-0.3066,-0.3064,-0.3086,-0.3102,-0.3111,-0.3131,-0.314,-0.3163,-0.3154,-0.3163,-0.3179,-0.3191,-0.3212,-0.3188,-0.3217,-0.3218,-0.3213,-0.3255,-0.326,-0.3295,-0.3241,-0.3242,-0.3243,0,-0.3004,-0.3023,-0.3064,-0.3083,-0.3092,-0.3112,-0.3134,-0.3153,-0.3171,-0.3176,-0.3191,-0.3193,-0.3219,-0.3205,-0.324,-0.3224,-0.3236,-0.3243,-0.3245,-0.3249,-0.3233,-0.3261,-0.3306,-0.3312,-0.325,-0.325,-0.3249,0,-0.3031,-0.3067,-0.3096,-0.3106,-0.3128,-0.3142,-0.3152,-0.3169,-0.3183,-0.3202,-0.3211,-0.3233,-0.3245,-0.3262,-0.327,-0.3259,-0.3305,-0.3292,-0.3311,-0.3311,-0.3322,-0.3321,-0.3371,-0.3328,-0.3328,-0.3328,-0.3328,0,-0.3072,-0.3097,-0.3108,-0.3126,-0.3155,-0.316,-0.3189,-0.3198,-0.3213,-0.3233,-0.3233,-0.3252,-0.326,-0.328,-0.3286,-0.3315,-0.3321,-0.3326,-0.3327,-0.3326,-0.3326,-0.3336,-0.3334,-0.3329,-0.3329,-0.3329,-0.3328,0,-0.3107,-0.3115,-0.3147,-0.3165,-0.3171,-0.3191,-0.3206,-0.3224,-0.3232,-0.3257,-0.3263,-0.3276,-0.3299,-0.3308,-0.3337,-0.3341,-0.3375,-0.3374,-0.3369,-0.3369,-0.3388,-0.3386,-0.3446,-0.3454,-0.3405,-0.3406,-0.3406,0,-0.3134,-0.3153,-0.3173,-0.3186,-0.3196,-0.3218,-0.3231,-0.3237,-0.3252,-0.3273,-0.3288,-0.3311,-0.3331,-0.3368,-0.338,-0.3402,-0.3402,-0.3421,-0.3406,-0.3404,-0.3403,-0.3402,-0.3405,-0.3425,-0.3425,-0.3426,-0.3426,0,-0.3179,-0.3182,-0.3202,-0.3223,-0.3239,-0.3256,-0.3273,-0.3283,-0.3292,-0.3308,-0.3332,-0.3346,-0.3375,-0.3398,-0.3421,-0.3431,-0.343,-0.3431,-0.3436,-0.3436,-0.3433,-0.3436,-0.3378,-0.343,-0.3429,-0.3429,-0.3429,-0.3429,-0.3212,-0.3229,-0.3245,-0.3267,-0.328,-0.3295,-0.3312,-0.3321,-0.3341,-0.3365,-0.3367,-0.3393,-0.341,-0.3439,-0.3451,-0.3471,-0.3466,-0.3474,-0.3476,-0.3478,-0.348,-0.3428,-0.3475,-0.3475,-0.3475,-0.3475,-0.3475,0,-0.3258,-0.3268,-0.3288,-0.3311,-0.3328,-0.3324,-0.3342,-0.3357,-0.3379,-0.3394,-0.3413,-0.344,-0.3462,-0.3475,-0.3497,-0.3511,-0.3511,-0.3517,-0.3516,-0.3519,-0.3483,-0.3476,-0.3516,-0.3516,-0.3516,-0.3516,-0.3516,-0.3516,-0.3285,-0.3313,-0.3318,-0.3353,-0.3363,-0.3388,-0.3398,-0.3412,-0.3424,-0.3454,-0.3473,-0.348,-0.3495,-0.3518,-0.3538,-0.3541,-0.355,-0.3556,-0.3559,-0.3525,-0.3521,-0.3517,-0.3511,-0.3558,-0.3558,-0.3593,-0.3593,-0.3594]},{"header":{"parameterUnit":"m.s-1","parameterCategory":1,"la1":30.2991,"la2":30.254,"lo1":-89.0895,"lo2":-89.0444,"dy":0.0017,"dx":0.0017,"nx":28,"ny":28,"refTime":"2025-01-06T03:00:00:Z","depth":0,"parameterNumber":3,"parameterNumberName":"V-component_of_WINDS"},"data":[0,0,0,0,0,0,0,0,0,0,0,0,0,0,0,0,0,0,0,0,0,0,0,0,0,0,0,0,0,0,0,0,0,0,0,0,0,0,0,0,0,0,0,0,0,0,0,0,0,0,0,0,0,0,0,0,0,0,-5.8114,-5.8114,0,-5.819,-5.8191,-5.8191,-5.8168,-5.8166,-5.8165,-5.8163,-5.8236,-5.8239,-5.8242,0,0,0,0,0,0,0,0,0,0,0,0,0,-5.7943,-5.7946,-5.8113,-5.8114,-5.8115,-5.819,-5.8191,-5.8192,-5.8168,-5.8166,-5.8164,-5.8163,-5.8235,-5.8239,-5.8243,0,0,0,0,0,0,0,0,0,0,0,0,0,-5.8018,-5.7947,-5.8113,-5.8113,-5.8114,-5.8189,-5.8191,-5.8192,-5.8169,-5.8166,-5.8164,-5.8162,-5.8233,-5.8238,-5.8243,-5.8322,0,0,-5.8259,-5.8261,0,0,0,0,0,0,0,0,-5.8013,-5.8024,-5.8112,-5.8113,-5.8114,-5.8167,-5.8157,-5.8235,-5.8169,-5.8148,-5.8163,-5.8161,-5.8214,-5.8221,-5.824,-5.8326,-5.8329,-5.8259,-5.8262,-5.8264,-5.8266,0,0,0,0,0,0,0,-5.8008,-5.802,-5.8143,-5.8113,-5.8115,-5.8107,-5.8115,-5.8172,-5.8193,-5.8149,-5.8148,-5.8158,-5.8214,-5.8235,-5.8242,-5.833,-5.8259,-5.8264,-5.8267,-5.8269,-5.8485,-5.8487,0,0,0,0,0,0,-5.8003,-5.8016,-5.8141,-5.8146,-5.8057,-5.8112,-5.8121,-5.8152,-5.8193,-5.8197,-5.8159,-5.8156,-5.8228,-5.8236,-5.8244,-5.834,-5.8264,-5.8269,-5.8272,-5.8482,-5.8485,-5.8488,0,0,0,0,0,0,-5.8,-5.8015,-5.8138,-5.8081,-5.8096,-5.8118,-5.8153,-5.8155,-5.8176,-5.82,-5.8203,-5.8177,-5.8226,-5.8237,-5.8304,-5.8342,-5.8272,-5.8276,-5.8479,-5.8483,-5.8487,-5.8533,0,0,0,0,0,0,-5.7995,-5.8013,-5.8045,-5.8082,-5.8099,-5.8198,-5.8155,-5.8158,-5.8186,-5.8182,-5.8218,-5.8221,-5.8225,-5.8296,-5.8309,-5.8348,-5.828,-5.8476,-5.8481,-5.8486,-5.8528,-5.8538,-5.8547,0,0,0,0,0,-5.7989,-5.8053,-5.8046,-5.8062,-5.8139,-5.82,-5.821,-5.8215,-5.8189,-5.822,-5.8236,-5.822,-5.8336,-5.8303,-5.8317,-5.8359,-5.8473,-5.8479,-5.8485,-5.8524,-5.8536,-5.8546,0,0,0,0,0,0,-5.8017,-5.8058,-5.8051,-5.8129,-5.8162,-5.8196,-5.8235,-5.8227,-5.8266,-5.8261,-5.8263,-5.8271,-5.834,-5.8356,-5.8318,-5.8438,-5.8401,-5.841,-5.8425,-5.8437,-5.8446,-5.8441,-5.8284,0,0,0,0,0,-5.8034,-5.8082,-5.8113,-5.8179,-5.8196,-5.8213,-5.824,-5.8241,-5.8274,-5.8287,-5.8307,-5.8338,-5.8382,-5.841,-5.8451,-5.853,-5.8537,-5.8565,-5.8575,-5.8582,-5.859,-5.8634,-5.8647,-5.8508,-5.8508,-5.8508,0,0,-5.8066,-5.8094,-5.8124,-5.8186,-5.8211,-5.826,-5.8225,-5.8277,-5.8313,-5.8294,-5.8359,-5.8375,-5.841,-5.8483,-5.8517,-5.8499,-5.863,-5.859,-5.8596,-5.86,-5.8641,-5.8654,-5.8666,-5.8512,-5.8511,-5.8511,0,0,-5.815,-5.8176,-5.8235,-5.8262,-5.8301,-5.8312,-5.8327,-5.8363,-5.8374,-5.8439,-5.8427,-5.8468,-5.8543,-5.8568,-5.8591,-5.8687,-5.8674,-5.87,-5.8748,-5.8791,-5.8802,-5.8812,-5.8846,-5.8859,-5.8708,-5.8708,-5.8708,0,-5.8185,-5.826,-5.8265,-5.832,-5.8348,-5.8336,-5.8395,-5.8419,-5.8469,-5.8488,-5.8468,-5.8563,-5.8585,-5.8665,-5.8688,-5.8707,-5.8722,-5.8696,-5.88,-5.881,-5.8819,-5.8852,-5.8865,-5.8711,-5.871,-5.871,-5.871,0,-5.8301,-5.8353,-5.8395,-5.8447,-5.8479,-5.8535,-5.8549,-5.858,-5.8579,-5.8592,-5.8659,-5.8686,-5.8733,-5.8751,-5.8749,-5.8831,-5.8819,-5.88,-5.8762,-5.8835,-5.8866,-5.8879,-5.8715,-5.8714,-5.8713,-5.8712,0,0,-5.8404,-5.8461,-5.8476,-5.85,-5.8544,-5.8583,-5.8638,-5.8687,-5.8714,-5.8749,-5.8795,-5.886,-5.8842,-5.8868,-5.8869,-5.8906,-5.8981,-5.8882,-5.8883,-5.89,-5.9074,-5.9089,-5.9104,-5.8973,-5.8976,-5.8978,-5.9071,0,-5.8493,-5.8594,-5.8601,-5.8691,-5.8739,-5.8729,-5.8777,-5.8808,-5.8822,-5.8863,-5.8877,-5.8923,-5.8896,-5.8912,-5.8949,-5.8965,-5.9016,-5.8958,-5.9015,-5.9018,-5.9008,-5.912,-5.9136,-5.9223,-5.9083,-5.9086,-5.9087,0,-5.861,-5.8652,-5.8747,-5.8786,-5.8806,-5.885,-5.8895,-5.8935,-5.897,-5.8977,-5.9007,-5.9003,-5.9059,-5.902,-5.9096,-5.9056,-5.908,-5.9092,-5.9095,-5.9101,-5.9057,-5.9129,-5.9251,-5.9264,-5.9106,-5.9105,-5.9103,0,-5.8677,-5.8757,-5.8825,-5.8845,-5.8892,-5.8923,-5.8943,-5.8976,-5.9005,-5.9044,-5.9062,-5.9106,-5.9131,-5.9164,-5.9172,-5.9142,-5.9249,-5.921,-5.9255,-5.9255,-5.9278,-5.9277,-5.9406,-5.9293,-5.9293,-5.9293,-5.9292,0,-5.8776,-5.8835,-5.8856,-5.8898,-5.8964,-5.8971,-5.9035,-5.9053,-5.9083,-5.9127,-5.9119,-5.916,-5.9167,-5.921,-5.9216,-5.9279,-5.9289,-5.9296,-5.9297,-5.9297,-5.9296,-5.9313,-5.9307,-5.9296,-5.9295,-5.9295,-5.9294,0,-5.8862,-5.8879,-5.8953,-5.8991,-5.9002,-5.9049,-5.9081,-5.912,-5.9134,-5.919,-5.9203,-5.9223,-5.9273,-5.9284,-5.9342,-5.9346,-5.9421,-5.9415,-5.941,-5.941,-5.9455,-5.9451,-5.96,-5.962,-5.9493,-5.9494,-5.9495,0,-5.8924,-5.897,-5.9015,-5.9045,-5.9068,-5.9116,-5.9146,-5.9155,-5.9187,-5.9231,-5.9265,-5.9314,-5.9354,-5.9434,-5.9452,-5.9497,-5.9493,-5.9542,-5.9499,-5.9498,-5.9494,-5.9492,-5.9497,-5.955,-5.9551,-5.9552,-5.9553,0,-5.9033,-5.904,-5.9085,-5.9134,-5.9172,-5.921,-5.9246,-5.927,-5.9284,-5.932,-5.9372,-5.9403,-5.9464,-5.9513,-5.9558,-5.9576,-5.9567,-5.9567,-5.958,-5.9581,-5.9576,-5.958,-5.9433,-5.9563,-5.9562,-5.9562,-5.9561,-5.9561,-5.911,-5.9151,-5.9189,-5.924,-5.9269,-5.9304,-5.9343,-5.9363,-5.9407,-5.9459,-5.9461,-5.9518,-5.9551,-5.9611,-5.9633,-5.9676,-5.9661,-5.968,-5.9684,-5.9689,-5.9694,-5.9569,-5.9684,-5.9684,-5.9684,-5.9684,-5.9683,0,-5.9219,-5.9244,-5.9291,-5.9344,-5.9384,-5.9374,-5.9414,-5.9447,-5.9498,-5.9532,-5.9572,-5.9632,-5.968,-5.9703,-5.975,-5.978,-5.9777,-5.9792,-5.979,-5.9795,-5.9705,-5.9689,-5.9794,-5.9794,-5.9794,-5.9794,-5.9794,-5.9794,-5.9281,-5.935,-5.9361,-5.9444,-5.9467,-5.9525,-5.9549,-5.958,-5.9608,-5.9676,-5.9717,-5.9732,-5.9761,-5.9811,-5.9854,-5.9859,-5.9877,-5.9894,-5.9898,-5.9813,-5.9801,-5.9791,-5.9776,-5.9898,-5.9898,-5.9985,-5.9985,-5.9986]}]]